Voltar ao catálogo

STARLINK-5665

AtivoComunicaçõesVLEO
NORAD 55361·PAYLOAD·🇺🇸 United States

Lançado Jan 26, 2023 de Cape Canaveral Space Force Station

Loading…

Próximas Passagens (próximas 24 horas)

TLE

AtualizadoSource: CelesTrak SupGP

Época: Sep 14, 2026, 22:16 UTC

1 55361C 23013AG  26257.92826389 -.00009494  00000+0 -34376-3 0  2578
2 55361  43.0035 299.8814 0001908 280.2990 168.4312 15.27593363    16

Acompanhe STARLINK-5665 em tempo real com AllMySat

Download on the App Store